[[{"header":{"parameterUnit":"m.s-1","parameterCategory":2,"la1":30.2991,"la2":30.254,"lo1":-89.0895,"lo2":-89.0444,"dy":0.0017,"dx":0.0017,"nx":28,"ny":28,"refTime":"2025-09-11T09:00:00:Z","depth":"0","parameterNumber":2,"parameterNumberName":"U-component_of_CURRENTS"},"data":[0,0,0,0,0,0,0,0,0,0,0,0,0,0,0,0,0,0,0,0,0,0,0,0,0,0,0,0,0,0,0,0,0,0,0,0,0,0,0,0,0,0,0,0,0,0,0,0,0,0,0,0,0,0,0,0,0,0,0.231,0.231,0,0.2307,0.2307,0.2307,0.2269,0.2269,0.2268,0.2267,0.2242,0.2242,0.2242,0,0,0,0,0,0,0,0,0,0,0,0,0,0.2347,0.2346,0.231,0.231,0.2311,0.2307,0.2307,0.2306,0.227,0.2269,0.2268,0.2267,0.2242,0.2242,0.2242,0,0,0,0,0,0,0,0,0,0,0,0,0,0.2334,0.2346,0.231,0.2294,0.2292,0.2307,0.2307,0.2306,0.227,0.2269,0.2268,0.2267,0.2242,0.2242,0.2242,0.2262,0,0,0.2241,0.2241,0,0,0,0,0,0,0,0,0.2335,0.2332,0.2296,0.2295,0.2293,0.229,0.2311,0.2291,0.227,0.2276,0.2267,0.2266,0.2258,0.2257,0.2255,0.2261,0.226,0.2241,0.2241,0.2241,0.2241,0,0,0,0,0,0,0,0.2335,0.2332,0.2306,0.2296,0.2295,0.2308,0.2304,0.2307,0.227,0.2275,0.2273,0.2277,0.2257,0.2255,0.2254,0.2259,0.2241,0.2241,0.2241,0.2241,0.2303,0.2305,0,0,0,0,0,0,0.2339,0.2333,0.2306,0.2306,0.2315,0.2308,0.2304,0.229,0.2271,0.2268,0.2278,0.2275,0.2256,0.2254,0.2253,0.2291,0.2241,0.2241,0.2241,0.2301,0.2303,0.2305,0,0,0,0,0,0,0.2339,0.2336,0.2307,0.2323,0.232,0.2309,0.2294,0.229,0.2288,0.2274,0.2269,0.2279,0.2255,0.2253,0.2267,0.2289,0.2241,0.2241,0.2299,0.2302,0.2304,0.2357,0,0,0,0,0,0,0.234,0.2335,0.2338,0.2322,0.232,0.2327,0.2295,0.2291,0.2294,0.229,0.2274,0.227,0.2254,0.2268,0.2267,0.2288,0.2241,0.2297,0.2301,0.2304,0.2353,0.2361,0.2368,0,0,0,0,0,0.2341,0.2349,0.2338,0.2336,0.2319,0.2328,0.2328,0.2315,0.2295,0.2306,0.2295,0.227,0.2287,0.2269,0.2268,0.2289,0.2296,0.23,0.2303,0.235,0.236,0.2368,0,0,0,0,0,0,0.2378,0.2346,0.2333,0.2334,0.2336,0.2323,0.2336,0.2321,0.2321,0.2314,0.2291,0.2288,0.231,0.2298,0.2279,0.2319,0.2288,0.2292,0.2324,0.2333,0.234,0.2334,0.2241,0,0,0,0,0,0.2385,0.2372,0.2359,0.2362,0.2365,0.235,0.2355,0.2342,0.2336,0.2334,0.2321,0.2316,0.2327,0.2327,0.2332,0.2353,0.235,0.2368,0.2375,0.2381,0.2378,0.2402,0.2411,0.2318,0.2318,0.2317,0,0,0.2401,0.2383,0.2377,0.2369,0.2366,0.2378,0.2349,0.2357,0.2365,0.2333,0.2343,0.2342,0.234,0.2364,0.2372,0.2354,0.241,0.2386,0.2391,0.2384,0.2407,0.2416,0.2424,0.232,0.232,0.2319,0,0,0.243,0.241,0.2413,0.2416,0.2415,0.2407,0.2411,0.24,0.2395,0.2408,0.2392,0.2404,0.241,0.2415,0.2418,0.2471,0.2451,0.2475,0.2501,0.2526,0.2534,0.254,0.256,0.2568,0.2476,0.2476,0.2476,0,0.2457,0.2444,0.2424,0.2435,0.2438,0.2421,0.2434,0.2437,0.2432,0.2431,0.2419,0.2437,0.2435,0.2465,0.2484,0.2486,0.2494,0.2466,0.2534,0.2541,0.2546,0.2565,0.2573,0.2479,0.2478,0.2478,0.2478,0,0.2485,0.2481,0.249,0.2484,0.2493,0.2501,0.2499,0.2504,0.2492,0.2486,0.2508,0.251,0.2515,0.2527,0.252,0.2563,0.2556,0.2542,0.2508,0.2559,0.2576,0.2583,0.2483,0.2482,0.2481,0.248,0,0,0.2519,0.2508,0.251,0.2505,0.251,0.2513,0.2538,0.2545,0.2549,0.2555,0.2566,0.2593,0.2581,0.2585,0.2583,0.2605,0.266,0.2592,0.2592,0.2605,0.2716,0.2651,0.2652,0.2659,0.266,0.2661,0.2716,0,0.2546,0.2555,0.2549,0.2564,0.2564,0.256,0.258,0.2587,0.2587,0.2597,0.2604,0.2617,0.2608,0.2612,0.2637,0.2648,0.2679,0.2646,0.267,0.2671,0.2601,0.2658,0.2497,0.2527,0.2723,0.2724,0.2725,0,0.2569,0.2565,0.2576,0.2571,0.2574,0.2588,0.2594,0.2611,0.2631,0.2633,0.2648,0.2647,0.2679,0.2664,0.2715,0.2693,0.2713,0.2723,0.2725,0.2646,0.2619,0.2506,0.2532,0.2313,0.2735,0.2735,0.2734,0,0.257,0.2581,0.2579,0.258,0.2585,0.2591,0.2599,0.2617,0.2626,0.2652,0.2658,0.2691,0.2699,0.2734,0.2751,0.2739,0.2803,0.2787,0.2753,0.2749,0.2604,0.2584,0.2409,0.2837,0.2837,0.2837,0.2836,0,0.258,0.2578,0.2575,0.2573,0.2576,0.2586,0.2598,0.2611,0.2635,0.2651,0.267,0.2688,0.2717,0.2748,0.2771,0.2779,0.2822,0.2765,0.2761,0.262,0.2602,0.2398,0.2357,0.2839,0.2838,0.2838,0.2837,0,0.2568,0.257,0.2566,0.257,0.2572,0.2572,0.2588,0.2603,0.2624,0.2647,0.2656,0.2692,0.2736,0.2766,0.2819,0.2789,0.2696,0.2812,0.2642,0.2615,0.2352,0.2323,0.2207,0.2157,0.2774,0.2773,0.2772,0,0.2549,0.2548,0.2554,0.2555,0.2554,0.2558,0.257,0.2594,0.2613,0.2649,0.2665,0.2706,0.2739,0.2779,0.2748,0.2769,0.2665,0.2603,0.2547,0.2314,0.2279,0.2234,0.22,0.2388,0.2384,0.2381,0.2378,0,0.2517,0.2529,0.2529,0.254,0.2549,0.2554,0.2571,0.2584,0.2621,0.2641,0.2674,0.27,0.271,0.2651,0.2646,0.2614,0.2397,0.2534,0.233,0.1994,0.1898,0.1854,0.238,0.2348,0.2351,0.2353,0.2355,0.2356,0.2494,0.2494,0.2515,0.2523,0.2537,0.2556,0.2553,0.2581,0.2608,0.2611,0.2658,0.2638,0.2522,0.2494,0.241,0.2072,0.2236,0.1935,0.1934,0.1921,0.1809,0.2271,0.2206,0.2208,0.221,0.2211,0.2213,0,0.2473,0.2489,0.2497,0.2515,0.2526,0.2538,0.2559,0.2546,0.2564,0.2553,0.256,0.2391,0.2219,0.2033,0.1694,0.1475,0.1416,0.1349,0.1204,0.122,0.1625,0.1533,0.1271,0.1271,0.1271,0.1271,0.1272,0.1272,0.2463,0.2477,0.249,0.2504,0.2511,0.2491,0.2493,0.247,0.2448,0.2322,0.2197,0.2143,0.1839,0.1345,0.0901,0.0841,0.0714,0.0683,0.0737,0.0918,0.097,0.1019,0.0914,0.0527,0.0526,0.0238,0.0235,0.0233]},{"header":{"parameterUnit":"m.s-1","parameterCategory":2,"la1":30.2991,"la2":30.254,"lo1":-89.0895,"lo2":-89.0444,"dy":0.0017,"dx":0.0017,"nx":28,"ny":28,"refTime":"2025-09-11T09:00:00:Z","depth":"0","parameterNumber":3,"parameterNumberName":"V-component_of_CURRENTS"},"data":[0,0,0,0,0,0,0,0,0,0,0,0,0,0,0,0,0,0,0,0,0,0,0,0,0,0,0,0,0,0,0,0,0,0,0,0,0,0,0,0,0,0,0,0,0,0,0,0,0,0,0,0,0,0,0,0,0,0,-0.031,-0.0309,0,-0.0269,-0.0269,-0.0269,-0.0254,-0.0254,-0.0254,-0.0254,-0.0243,-0.0243,-0.0243,0,0,0,0,0,0,0,0,0,0,0,0,0,-0.0384,-0.0383,-0.031,-0.0309,-0.0308,-0.0269,-0.0269,-0.0269,-0.0254,-0.0254,-0.0254,-0.0254,-0.0243,-0.0243,-0.0243,0,0,0,0,0,0,0,0,0,0,0,0,0,-0.0351,-0.0383,-0.031,-0.0294,-0.0292,-0.0269,-0.0269,-0.0268,-0.0254,-0.0254,-0.0254,-0.0254,-0.0243,-0.0243,-0.0243,-0.0246,0,0,-0.0242,-0.0242,0,0,0,0,0,0,0,0,-0.0353,-0.0349,-0.0297,-0.0295,-0.0293,-0.0264,-0.0291,-0.0261,-0.0254,-0.0272,-0.0254,-0.0253,-0.0251,-0.025,-0.0247,-0.0245,-0.0245,-0.0242,-0.0242,-0.0242,-0.0242,0,0,0,0,0,0,0,-0.0356,-0.0351,-0.0297,-0.0296,-0.0294,-0.0292,-0.0287,-0.0285,-0.0266,-0.027,-0.0268,-0.0259,-0.025,-0.0247,-0.0247,-0.0245,-0.0242,-0.0242,-0.0242,-0.0242,-0.0237,-0.0237,0,0,0,0,0,0,-0.0354,-0.0353,-0.0298,-0.0295,-0.0319,-0.029,-0.0285,-0.0276,-0.0265,-0.0262,-0.0259,-0.0258,-0.0248,-0.0247,-0.0246,-0.0243,-0.0242,-0.0242,-0.0242,-0.0237,-0.0237,-0.0237,0,0,0,0,0,0,-0.0356,-0.0349,-0.03,-0.0321,-0.0314,-0.0289,-0.0279,-0.0275,-0.027,-0.0256,-0.0254,-0.0257,-0.0247,-0.0246,-0.0242,-0.0243,-0.0242,-0.0241,-0.0237,-0.0237,-0.0237,-0.0242,0,0,0,0,0,0,-0.0358,-0.035,-0.0353,-0.0321,-0.0312,-0.029,-0.0278,-0.0274,-0.0263,-0.0262,-0.0254,-0.0252,-0.0247,-0.0243,-0.0242,-0.0243,-0.0241,-0.0237,-0.0237,-0.0237,-0.0242,-0.0242,-0.0242,0,0,0,0,0,-0.0361,-0.0365,-0.0353,-0.0347,-0.0314,-0.029,-0.0286,-0.027,-0.0263,-0.0265,-0.0255,-0.0253,-0.0242,-0.0243,-0.0242,-0.0242,-0.0237,-0.0237,-0.0237,-0.0241,-0.0242,-0.0242,0,0,0,0,0,0,-0.041,-0.0362,-0.0349,-0.0342,-0.0318,-0.0286,-0.0288,-0.0271,-0.0264,-0.0265,-0.0253,-0.0251,-0.0247,-0.0245,-0.0246,-0.0241,-0.0239,-0.0239,-0.0243,-0.0243,-0.0244,-0.0245,-0.0241,0,0,0,0,0,-0.0418,-0.0401,-0.0362,-0.0358,-0.0347,-0.0318,-0.0309,-0.0291,-0.0274,-0.0271,-0.0261,-0.0253,-0.0247,-0.0245,-0.024,-0.024,-0.0228,-0.024,-0.024,-0.024,-0.0241,-0.022,-0.0218,-0.0237,-0.0237,-0.0237,0,0,-0.0434,-0.0407,-0.0399,-0.0366,-0.0349,-0.0333,-0.0313,-0.0297,-0.0285,-0.0272,-0.0263,-0.0254,-0.0246,-0.0243,-0.0241,-0.0241,-0.0228,-0.024,-0.0241,-0.0241,-0.022,-0.0218,-0.0216,-0.0237,-0.0237,-0.0237,0,0,-0.0452,-0.0437,-0.0425,-0.0406,-0.0372,-0.0352,-0.0346,-0.0311,-0.0301,-0.0286,-0.0273,-0.0263,-0.0255,-0.0246,-0.0242,-0.0242,-0.0229,-0.0242,-0.0246,-0.0226,-0.0224,-0.0222,-0.0201,-0.0198,-0.0244,-0.0244,-0.0244,0,-0.0479,-0.0451,-0.0423,-0.0408,-0.0392,-0.0359,-0.0346,-0.0332,-0.03,-0.0289,-0.0287,-0.0261,-0.0256,-0.0244,-0.0244,-0.0242,-0.0228,-0.0245,-0.0226,-0.0224,-0.0222,-0.0201,-0.0197,-0.0244,-0.0244,-0.0244,-0.0244,0,-0.0477,-0.0461,-0.0457,-0.0421,-0.0406,-0.039,-0.0358,-0.0344,-0.0325,-0.0304,-0.0286,-0.0273,-0.0256,-0.0255,-0.0251,-0.0236,-0.0228,-0.0227,-0.0224,-0.0221,-0.0198,-0.0194,-0.0244,-0.0244,-0.0244,-0.0244,0,0,-0.0527,-0.0465,-0.0466,-0.0443,-0.0408,-0.039,-0.0376,-0.0345,-0.0328,-0.0308,-0.0286,-0.0277,-0.0263,-0.0257,-0.0247,-0.0234,-0.021,-0.0228,-0.0227,-0.0206,-0.0161,-0.0114,-0.0105,-0.0203,-0.0202,-0.0202,-0.015,0,-0.0536,-0.0497,-0.047,-0.0445,-0.0421,-0.0392,-0.0379,-0.035,-0.0327,-0.0301,-0.0285,-0.0264,-0.0266,-0.0254,-0.0242,-0.0213,-0.0199,-0.0224,-0.0169,-0.0168,-0.0125,-0.0098,-0.0018,0.0039,-0.0145,-0.0145,-0.0144,0,-0.0549,-0.0512,-0.0477,-0.043,-0.0421,-0.0407,-0.037,-0.0352,-0.0317,-0.03,-0.0279,-0.026,-0.0236,-0.0239,-0.0194,-0.0208,-0.0188,-0.017,-0.0168,-0.0119,-0.0112,0.0004,0.0054,0.005,-0.0137,-0.0138,-0.0138,0,-0.0574,-0.0528,-0.0492,-0.0476,-0.0419,-0.0407,-0.0385,-0.0351,-0.033,-0.0296,-0.0276,-0.0247,-0.0223,-0.0198,-0.0159,-0.0174,-0.0104,-0.0119,-0.0059,-0.0055,0.0026,0.0036,0.0081,-0.0089,-0.0089,-0.009,-0.009,0,-0.0589,-0.0568,-0.0498,-0.0477,-0.0441,-0.0413,-0.0383,-0.0358,-0.0327,-0.0295,-0.0276,-0.0243,-0.0211,-0.0166,-0.0145,-0.0075,-0.0089,-0.0049,-0.0034,0.0027,0.0036,0.0047,0.0019,-0.0088,-0.0088,-0.0088,-0.0089,0,-0.0617,-0.0574,-0.0527,-0.0463,-0.0444,-0.042,-0.0375,-0.0353,-0.033,-0.0288,-0.0276,-0.0228,-0.0156,-0.0116,-0.0058,-0.0044,0.0031,0.0031,0.0102,0.0125,0.0172,0.0141,0.0198,0.0208,0.0106,0.0108,0.0109,0,-0.0619,-0.0592,-0.0513,-0.0477,-0.0446,-0.0407,-0.0378,-0.0352,-0.0327,-0.0272,-0.0248,-0.0174,-0.0099,0.0008,0.0079,0.0153,0.0112,0.0225,0.0207,0.0199,0.0175,0.0143,0.0144,0.0313,0.0316,0.0318,0.032,0,-0.0609,-0.0582,-0.0532,-0.0464,-0.0423,-0.038,-0.0342,-0.0323,-0.0288,-0.0242,-0.0167,-0.0104,0.0025,0.0177,0.0268,0.0288,0.0247,0.0275,0.0256,0.0336,0.0317,0.0327,0.0243,0.0341,0.0339,0.0337,0.0336,0.0335,-0.0594,-0.0562,-0.0494,-0.0438,-0.0393,-0.0348,-0.0311,-0.0265,-0.0208,-0.0097,-0.0073,0.0106,0.0264,0.0434,0.0411,0.0472,0.0413,0.0483,0.0445,0.0412,0.0428,0.0389,0.0506,0.0505,0.0504,0.0504,0.0503,0,-0.0552,-0.0519,-0.0469,-0.0396,-0.0355,-0.0336,-0.0277,-0.0223,-0.0135,0.0034,0.0145,0.0442,0.058,0.0647,0.0733,0.0679,0.0612,0.0624,0.0594,0.0585,0.0561,0.0576,0.0728,0.0728,0.0728,0.0728,0.0728,0.0728,-0.0516,-0.0465,-0.0448,-0.0374,-0.0332,-0.0265,-0.0226,-0.0128,0.0011,0.0291,0.0539,0.0707,0.0854,0.0833,0.0812,0.0766,0.0692,0.0691,0.0616,0.0593,0.0576,0.056,0.0569,0.0717,0.0717,0.0685,0.0684,0.0684]}],[{"header":{"parameterUnit":"m.s-1","parameterCategory":2,"la1":30.2991,"la2":30.254,"lo1":-89.0895,"lo2":-89.0444,"dy":0.0017,"dx":0.0017,"nx":28,"ny":28,"refTime":"2025-09-11T09:00:00:Z","depth":"2","parameterNumber":2,"parameterNumberName":"U-component_of_CURRENTS"},"data":[0,0,0,0,0,0,0,0,0,0,0,0,0,0,0,0,0,0,0,0,0,0,0,0,0,0,0,0,0,0,0,0,0,0,0,0,0,0,0,0,0,0,0,0,0,0,0,0,0,0,0,0,0,0,0,0,0,0,0.121,0.121,0,0.1205,0.1205,0.1205,0.1238,0.1239,0.124,0.1241,0.1318,0.1319,0.1321,0,0,0,0,0,0,0,0,0,0,0,0,0,0.1188,0.1189,0.121,0.1211,0.1211,0.1206,0.1205,0.1205,0.1237,0.1239,0.124,0.1241,0.1318,0.1319,0.1321,0,0,0,0,0,0,0,0,0,0,0,0,0,0.1191,0.1189,0.121,0.1227,0.1229,0.1206,0.1205,0.1205,0.1237,0.1239,0.124,0.1242,0.1318,0.1319,0.1321,0.13,0,0,0.1326,0.1327,0,0,0,0,0,0,0,0,0.1191,0.1192,0.1225,0.1226,0.1228,0.1225,0.1226,0.1241,0.1237,0.1233,0.1241,0.1243,0.1294,0.1298,0.1291,0.1304,0.1307,0.1326,0.1327,0.1328,0.1328,0,0,0,0,0,0,0,0.1191,0.1192,0.1207,0.1224,0.1226,0.1214,0.1217,0.1228,0.1255,0.1233,0.1236,0.1237,0.1296,0.1289,0.1293,0.1308,0.1326,0.1327,0.1328,0.1329,0.1422,0.1424,0,0,0,0,0,0,0.1195,0.1192,0.1207,0.1207,0.1214,0.1214,0.1217,0.1223,0.1254,0.1259,0.1235,0.1238,0.1285,0.1291,0.1296,0.1379,0.1328,0.1329,0.133,0.1421,0.1423,0.1424,0,0,0,0,0,0,0.1195,0.1197,0.1208,0.12,0.1201,0.1213,0.122,0.1222,0.1247,0.1255,0.1262,0.1262,0.1287,0.1294,0.1345,0.1379,0.133,0.1332,0.1419,0.1422,0.1424,0.1478,0,0,0,0,0,0,0.1194,0.1197,0.1207,0.1201,0.1202,0.1229,0.1219,0.1221,0.1244,0.1248,0.1279,0.1286,0.1289,0.1342,0.1346,0.138,0.1333,0.1417,0.142,0.1423,0.1474,0.1482,0.1488,0,0,0,0,0,0.1194,0.1203,0.1208,0.121,0.1214,0.123,0.1231,0.1242,0.1244,0.1267,0.1289,0.1286,0.1363,0.1345,0.1349,0.1384,0.1416,0.1419,0.1423,0.1471,0.148,0.1488,0,0,0,0,0,0,0.1198,0.1207,0.1212,0.1225,0.1243,0.1237,0.1252,0.1256,0.1286,0.1297,0.1303,0.1312,0.1369,0.1368,0.1348,0.142,0.1389,0.1394,0.1425,0.1433,0.144,0.1439,0.1334,0,0,0,0,0,0.1202,0.1217,0.1226,0.124,0.125,0.1254,0.1262,0.1274,0.1293,0.1307,0.133,0.1353,0.1377,0.1401,0.1421,0.1458,0.1448,0.1485,0.1492,0.1497,0.15,0.1496,0.1503,0.1435,0.1435,0.1435,0,0,0.1204,0.1214,0.1221,0.1243,0.1253,0.1266,0.1264,0.1291,0.1308,0.1311,0.1356,0.138,0.1393,0.144,0.1465,0.145,0.1518,0.1502,0.1507,0.1506,0.15,0.1507,0.1512,0.1438,0.1437,0.1437,0,0,0.1217,0.1232,0.1249,0.1263,0.129,0.1294,0.131,0.133,0.1352,0.1393,0.1399,0.1447,0.1483,0.1501,0.1511,0.1566,0.1553,0.1581,0.1618,0.1615,0.162,0.1624,0.1643,0.1649,0.1586,0.1586,0.1586,0,0.1229,0.1241,0.1259,0.1276,0.1286,0.131,0.1328,0.1346,0.1384,0.1406,0.1423,0.1486,0.1508,0.1548,0.158,0.1582,0.1584,0.1585,0.1622,0.1626,0.163,0.1648,0.1653,0.1589,0.1589,0.1588,0.1588,0,0.1247,0.1258,0.1272,0.13,0.1318,0.1342,0.1365,0.1401,0.1432,0.1451,0.1518,0.155,0.1588,0.161,0.1617,0.166,0.1658,0.1628,0.1597,0.1639,0.1657,0.1661,0.1593,0.1592,0.1591,0.1591,0,0,0.1282,0.1284,0.1297,0.1295,0.1333,0.1346,0.1387,0.1427,0.1454,0.1513,0.1552,0.1617,0.1646,0.1659,0.168,0.1694,0.1738,0.1685,0.1684,0.1699,0.1753,0.1652,0.1647,0.1714,0.1714,0.1715,0.1764,0,0.1302,0.1317,0.1324,0.1342,0.1344,0.1373,0.1405,0.1446,0.1491,0.1539,0.1588,0.1638,0.1658,0.1694,0.1713,0.1734,0.1749,0.1729,0.1715,0.1715,0.1614,0.1648,0.1488,0.1508,0.1768,0.1768,0.1769,0,0.1328,0.1328,0.1345,0.1342,0.1352,0.1378,0.1431,0.1463,0.153,0.1567,0.1627,0.1661,0.1728,0.172,0.1775,0.1764,0.1767,0.1773,0.1774,0.1659,0.1621,0.1504,0.1506,0.1776,0.1775,0.1775,0.1774,0,0.1332,0.1344,0.1355,0.1357,0.1369,0.1398,0.1426,0.1487,0.1521,0.1596,0.1632,0.1696,0.1742,0.176,0.1776,0.179,0.18,0.1811,0.1722,0.1716,0.1564,0.1543,0.182,0.182,0.182,0.182,0.182,0,0.1339,0.1346,0.1361,0.1359,0.1388,0.1405,0.1457,0.1493,0.1556,0.1594,0.1655,0.168,0.1752,0.1762,0.1777,0.1753,0.1796,0.1734,0.1715,0.1581,0.1562,0.1772,0.1766,0.1822,0.1821,0.1821,0.182,0,0.1336,0.1345,0.1345,0.1366,0.1384,0.1412,0.1469,0.1496,0.1563,0.1615,0.1643,0.1693,0.1723,0.1749,0.1773,0.1742,0.1729,0.1692,0.1541,0.1501,0.1667,0.1663,0.1658,0.1654,0.1652,0.1649,0.1647,0,0.1333,0.1335,0.1354,0.1361,0.1377,0.1421,0.1448,0.1508,0.1531,0.1602,0.1612,0.1661,0.166,0.1649,0.16,0.1589,0.1655,0.142,0.1411,0.1665,0.1647,0.1648,0.1648,0.1258,0.1253,0.1249,0.1246,0,0.1314,0.1333,0.1319,0.1345,0.1372,0.1395,0.1436,0.1449,0.1513,0.1522,0.1526,0.1532,0.1536,0.1423,0.1382,0.1357,0.1418,0.1337,0.1622,0.1307,0.1286,0.1269,0.1283,0.1209,0.1213,0.1215,0.1217,0.1219,0.1301,0.1295,0.1294,0.1307,0.1339,0.1356,0.1342,0.1357,0.1351,0.1342,0.1378,0.1298,0.1291,0.1141,0.1091,0.1068,0.1206,0.1152,0.1165,0.1183,0.1111,0.1084,0.0959,0.0961,0.0963,0.0964,0.0966,0,0.1259,0.126,0.1259,0.1255,0.1245,0.1311,0.1313,0.1235,0.1167,0.1177,0.1137,0.0903,0.0824,0.0855,0.0756,0.0752,0.0767,0.0731,0.0741,0.0776,0.0808,0.0718,0.0462,0.046,0.0459,0.0458,0,0,0.1235,0.1201,0.1185,0.1148,0.117,0.1141,0.1126,0.1002,0.0941,0.0796,0.0726,0.0758,0.0772,0.0566,0.0558,0.0503,0.0641,0.0476,0.0875,0.092,0.095,0.1038,0.0936,0,0,0,0,0]},{"header":{"parameterUnit":"m.s-1","parameterCategory":2,"la1":30.2991,"la2":30.254,"lo1":-89.0895,"lo2":-89.0444,"dy":0.0017,"dx":0.0017,"nx":28,"ny":28,"refTime":"2025-09-11T09:00:00:Z","depth":"2","parameterNumber":3,"parameterNumberName":"V-component_of_CURRENTS"},"data":[0,0,0,0,0,0,0,0,0,0,0,0,0,0,0,0,0,0,0,0,0,0,0,0,0,0,0,0,0,0,0,0,0,0,0,0,0,0,0,0,0,0,0,0,0,0,0,0,0,0,0,0,0,0,0,0,0,0,0.0329,0.033,0,0.0356,0.0356,0.0357,0.0347,0.0346,0.0346,0.0345,0.0308,0.0307,0.0307,0,0,0,0,0,0,0,0,0,0,0,0,0,0.0278,0.0279,0.0329,0.033,0.033,0.0356,0.0357,0.0357,0.0347,0.0346,0.0345,0.0345,0.0308,0.0308,0.0307,0,0,0,0,0,0,0,0,0,0,0,0,0,0.0301,0.0279,0.0329,0.0329,0.033,0.0356,0.0357,0.0357,0.0347,0.0346,0.0345,0.0345,0.0308,0.0308,0.0307,0.0317,0,0,0.0304,0.0304,0,0,0,0,0,0,0,0,0.03,0.0303,0.0329,0.0329,0.033,0.0348,0.0325,0.0341,0.0347,0.0339,0.0345,0.0344,0.0317,0.0315,0.0321,0.0315,0.0314,0.0304,0.0304,0.0304,0.0303,0,0,0,0,0,0,0,0.0298,0.0302,0.0339,0.0329,0.033,0.0331,0.0333,0.0328,0.033,0.034,0.0339,0.0345,0.0316,0.0322,0.032,0.0313,0.0304,0.0304,0.0303,0.0303,0.0295,0.0295,0,0,0,0,0,0,0.0298,0.03,0.0338,0.034,0.0314,0.0333,0.0335,0.0342,0.0331,0.033,0.0345,0.0344,0.0324,0.0321,0.0319,0.0326,0.0304,0.0303,0.0302,0.0295,0.0295,0.0296,0,0,0,0,0,0,0.0297,0.0301,0.0337,0.0321,0.0326,0.0334,0.0342,0.0343,0.0344,0.0336,0.0333,0.0344,0.0323,0.032,0.0311,0.0325,0.0302,0.0302,0.0295,0.0295,0.0295,0.0343,0,0,0,0,0,0,0.0295,0.0301,0.0304,0.0322,0.0327,0.0354,0.0343,0.0344,0.0349,0.0347,0.0335,0.0331,0.0322,0.0312,0.031,0.0323,0.0301,0.0294,0.0295,0.0295,0.0342,0.0345,0.0349,0,0,0,0,0,0.0293,0.0305,0.0304,0.0309,0.0332,0.0355,0.0358,0.036,0.035,0.0356,0.0343,0.0331,0.0314,0.0312,0.0309,0.0323,0.0294,0.0295,0.0295,0.034,0.0345,0.0349,0,0,0,0,0,0,0.0287,0.0306,0.0305,0.0322,0.0336,0.0353,0.036,0.036,0.0356,0.0349,0.0335,0.0331,0.0329,0.0316,0.0314,0.032,0.0302,0.0302,0.0337,0.0341,0.0345,0.0366,0.03,0,0,0,0,0,0.0287,0.0299,0.0317,0.033,0.0336,0.0346,0.0354,0.0357,0.0358,0.0356,0.0347,0.0335,0.0332,0.0328,0.0321,0.0324,0.0314,0.033,0.0333,0.0337,0.0351,0.0348,0.0354,0.0297,0.0297,0.0297,0,0,0.0292,0.0301,0.031,0.0329,0.0338,0.0361,0.0348,0.0362,0.0382,0.0352,0.0364,0.0347,0.0335,0.0341,0.0339,0.033,0.0344,0.0337,0.034,0.0354,0.035,0.0355,0.036,0.0298,0.0298,0.0298,0,0,0.0314,0.0311,0.0332,0.0344,0.0359,0.0368,0.0371,0.0385,0.0388,0.0397,0.0382,0.0376,0.0366,0.0369,0.0367,0.0386,0.0363,0.0375,0.0413,0.041,0.0415,0.042,0.0401,0.0404,0.0378,0.0378,0.0378,0,0.0315,0.0345,0.0342,0.0364,0.0379,0.0372,0.0402,0.0409,0.0418,0.0427,0.0404,0.0402,0.0387,0.0407,0.0413,0.0397,0.0382,0.0399,0.0417,0.0421,0.0424,0.0405,0.0407,0.038,0.038,0.038,0.0379,0,0.0356,0.0379,0.039,0.0417,0.043,0.0452,0.0464,0.0472,0.0467,0.0475,0.0483,0.0461,0.0461,0.0454,0.044,0.0461,0.0436,0.0422,0.0409,0.0433,0.041,0.0411,0.0384,0.0383,0.0382,0.0381,0,0,0.0361,0.0411,0.0412,0.044,0.0459,0.0478,0.0505,0.0536,0.0556,0.0547,0.0573,0.0563,0.0542,0.0539,0.0515,0.0513,0.0518,0.0481,0.0479,0.0469,0.0498,0.05,0.0501,0.0504,0.0504,0.0505,0.0468,0,0.0393,0.0452,0.0464,0.0519,0.0553,0.0554,0.0583,0.0602,0.0606,0.0624,0.0607,0.0613,0.0577,0.057,0.0565,0.0537,0.0526,0.0529,0.0471,0.047,0.0474,0.0504,0.0512,0.0482,0.0469,0.0469,0.0469,0,0.0424,0.0464,0.0525,0.0582,0.0594,0.0618,0.0656,0.0681,0.07,0.0699,0.07,0.0681,0.0683,0.0638,0.0609,0.061,0.056,0.0529,0.0527,0.0518,0.0475,0.0458,0.0485,0.0471,0.0471,0.0471,0.0471,0,0.0439,0.0503,0.0555,0.0572,0.0632,0.0653,0.0675,0.0701,0.0726,0.0742,0.0753,0.0746,0.074,0.0694,0.0635,0.0618,0.0596,0.056,0.0511,0.0509,0.0502,0.0499,0.0532,0.0532,0.0532,0.0532,0.0532,0,0.0476,0.0514,0.0563,0.0596,0.0651,0.0673,0.0721,0.0741,0.0767,0.0806,0.0785,0.0812,0.0753,0.0733,0.0664,0.0605,0.0615,0.0532,0.0511,0.0517,0.0516,0.0496,0.0492,0.0531,0.0531,0.0531,0.0531,0,0.0497,0.0527,0.0589,0.0648,0.0665,0.0699,0.075,0.0785,0.0799,0.0847,0.0852,0.0865,0.085,0.0784,0.0719,0.0647,0.0585,0.0551,0.0559,0.054,0.0485,0.0484,0.0494,0.0494,0.0494,0.0494,0.0494,0,0.0524,0.0556,0.062,0.065,0.0679,0.0727,0.0764,0.0796,0.0837,0.0888,0.092,0.0921,0.0949,0.086,0.075,0.064,0.0603,0.0543,0.0517,0.0508,0.0486,0.0485,0.0484,0.0512,0.0512,0.0512,0.0512,0,0.057,0.0575,0.0624,0.0683,0.0725,0.0782,0.0837,0.0882,0.0927,0.098,0.105,0.1076,0.0999,0.0918,0.0765,0.0685,0.0567,0.0541,0.0543,0.0528,0.0525,0.0503,0.0502,0.0513,0.0513,0.0513,0.0513,0.0513,0.0587,0.0614,0.0659,0.0719,0.0764,0.0833,0.09,0.0973,0.1062,0.1141,0.1155,0.1164,0.1049,0.0865,0.0736,0.0578,0.0597,0.0509,0.0509,0.0509,0.0525,0.0524,0.0513,0.0513,0.0513,0.0513,0.0513,0,0.0606,0.0634,0.0694,0.0764,0.0822,0.0835,0.0947,0.104,0.1174,0.1184,0.1249,0.1102,0.102,0.0854,0.0635,0.0522,0.0503,0.0458,0.0457,0.0458,0.0459,0.0472,0.0446,0.0445,0.0444,0.0443,0,0,0.0612,0.0661,0.0697,0.0798,0.0844,0.0939,0.1011,0.1154,0.121,0.1243,0.1186,0.12,0.1019,0.083,0.0695,0.0559,0.0525,0.0528,0.0601,0.0621,0.0622,0.0518,0.0544,0,0,0,0,0]}],[{"header":{"parameterUnit":"m.s-1","parameterCategory":2,"la1":30.2991,"la2":30.254,"lo1":-89.0895,"lo2":-89.0444,"dy":0.0017,"dx":0.0017,"nx":28,"ny":28,"refTime":"2025-09-11T09:00:00:Z","depth":"4","parameterNumber":2,"parameterNumberName":"U-component_of_CURRENTS"},"data":[0,0,0,0,0,0,0,0,0,0,0,0,0,0,0,0,0,0,0,0,0,0,0,0,0,0,0,0,0,0,0,0,0,0,0,0,0,0,0,0,0,0,0,0,0,0,0,0,0,0,0,0,0,0,0,0,0,0,0.027,0.027,0,0.027,0.027,0.027,0.0287,0.0287,0.0288,0.0288,0.0328,0.0329,0.0329,0,0,0,0,0,0,0,0,0,0,0,0,0,0.0281,0.0281,0.027,0.027,0.027,0.027,0.027,0.027,0.0287,0.0287,0.0288,0.0288,0.0328,0.0329,0.0329,0,0,0,0,0,0,0,0,0,0,0,0,0,0.0278,0.0281,0.027,0.0279,0.0279,0.027,0.027,0.027,0.0287,0.0287,0.0288,0.0289,0.0328,0.0329,0.0329,0.0321,0,0,0.0332,0.0333,0,0,0,0,0,0,0,0,0.0278,0.0278,0.0277,0.0278,0.0279,0.0279,0.0288,0.0289,0.0286,0.0283,0.0288,0.0289,0.0315,0.0317,0.0314,0.0322,0.0324,0.0332,0.0333,0.0333,0.0334,0,0,0,0,0,0,0,0.0278,0.0278,0.0269,0.0277,0.0278,0.0281,0.0282,0.0288,0.0296,0.0284,0.0285,0.0285,0.0316,0.0314,0.0316,0.0325,0.0332,0.0333,0.0334,0.0334,0.0384,0.0385,0,0,0,0,0,0,0.0278,0.0278,0.0269,0.0269,0.0281,0.0281,0.0281,0.0278,0.0295,0.0298,0.0285,0.0286,0.0312,0.0315,0.0317,0.0357,0.0333,0.0334,0.0335,0.0384,0.0385,0.0385,0,0,0,0,0,0,0.0278,0.0277,0.0269,0.0274,0.0273,0.028,0.0276,0.0278,0.0289,0.0295,0.0299,0.0296,0.0312,0.0316,0.0342,0.0357,0.0335,0.0335,0.0383,0.0384,0.0385,0.0405,0,0,0,0,0,0,0.0279,0.0277,0.0282,0.0274,0.0273,0.027,0.0276,0.0277,0.0287,0.0289,0.0306,0.0309,0.0313,0.0341,0.0343,0.0358,0.0336,0.0382,0.0383,0.0385,0.0403,0.0407,0.0409,0,0,0,0,0,0.0279,0.0277,0.0282,0.0282,0.0277,0.027,0.027,0.0277,0.0287,0.029,0.0311,0.031,0.0352,0.0342,0.0345,0.036,0.0381,0.0383,0.0384,0.0402,0.0406,0.0409,0,0,0,0,0,0,0.0278,0.0278,0.0284,0.0281,0.0281,0.0273,0.0276,0.0283,0.0299,0.031,0.0318,0.0323,0.0351,0.0353,0.0342,0.0379,0.0366,0.0369,0.0379,0.0383,0.0386,0.0385,0.0337,0,0,0,0,0,0.0281,0.0284,0.0281,0.028,0.028,0.0282,0.0283,0.029,0.0299,0.0307,0.0322,0.0341,0.0356,0.0369,0.038,0.04,0.0415,0.0412,0.0415,0.0418,0.0419,0.0467,0.0474,0.0391,0.0391,0.0391,0,0,0.028,0.0281,0.0283,0.0281,0.0281,0.0285,0.0285,0.029,0.0305,0.0309,0.034,0.0351,0.0363,0.0387,0.04,0.0395,0.0449,0.042,0.0422,0.0422,0.0469,0.0478,0.0485,0.0392,0.0392,0.0392,0,0,0.0273,0.028,0.028,0.0284,0.029,0.0293,0.0298,0.0304,0.032,0.0347,0.0356,0.038,0.0403,0.0416,0.0425,0.0452,0.0462,0.0455,0.0472,0.0519,0.0526,0.0533,0.0559,0.0568,0.0459,0.0459,0.0459,0,0.0276,0.0276,0.0279,0.0281,0.029,0.0299,0.0306,0.0319,0.0338,0.0356,0.0364,0.0406,0.0419,0.0446,0.0457,0.046,0.0481,0.0456,0.0523,0.053,0.0537,0.0562,0.0572,0.046,0.046,0.046,0.0459,0,0.0268,0.0276,0.0276,0.0288,0.0296,0.0303,0.0322,0.0344,0.037,0.0385,0.0424,0.0442,0.0472,0.0475,0.0476,0.0521,0.0519,0.052,0.0513,0.0546,0.0571,0.058,0.0461,0.0461,0.0461,0.046,0,0,0.0257,0.0269,0.0273,0.0285,0.0306,0.031,0.0343,0.037,0.0398,0.0426,0.0463,0.049,0.0505,0.0516,0.0521,0.0552,0.0616,0.0557,0.0559,0.0582,0.071,0.0625,0.0627,0.0633,0.0635,0.0636,0.0708,0,0.0254,0.0261,0.0274,0.0294,0.03,0.033,0.0356,0.0387,0.0424,0.0462,0.0489,0.0522,0.052,0.054,0.0575,0.0606,0.0643,0.0596,0.0676,0.0678,0.0597,0.0636,0.0642,0.0715,0.0717,0.0718,0.072,0,0.0244,0.0254,0.0269,0.0302,0.0308,0.0329,0.0382,0.0409,0.0462,0.0493,0.0535,0.0555,0.0604,0.06,0.0682,0.0654,0.0689,0.0707,0.0711,0.063,0.061,0.0676,0.0737,0.0736,0.0734,0.0733,0.0732,0,0.0232,0.0254,0.0269,0.028,0.0315,0.0342,0.0371,0.0422,0.0452,0.0519,0.0547,0.0605,0.0641,0.0698,0.0736,0.0727,0.0814,0.0812,0.0764,0.0758,0.0805,0.0797,0.0879,0.0879,0.0878,0.0878,0.0878,0,0.0222,0.0235,0.0267,0.0279,0.0306,0.0339,0.0384,0.0421,0.0478,0.0506,0.0564,0.059,0.0671,0.072,0.0758,0.0783,0.0844,0.0772,0.0775,0.081,0.0802,0.0811,0.0803,0.0881,0.088,0.088,0.0879,0,0.02,0.0219,0.0239,0.0283,0.0299,0.0322,0.0382,0.0408,0.047,0.0513,0.0535,0.0603,0.0663,0.072,0.0806,0.08,0.0838,0.0831,0.0856,0.0858,0.0749,0.074,0.0799,0.0797,0.0795,0.0793,0.0792,0,0.0186,0.0192,0.0237,0.0246,0.0269,0.0309,0.033,0.0398,0.0422,0.0504,0.0511,0.0585,0.0624,0.0678,0.0744,0.081,0.0801,0.082,0.0789,0.0745,0.0743,0.0738,0.0732,0.0789,0.0788,0.0788,0.0787,0,0.0161,0.0181,0.0201,0.022,0.0243,0.0257,0.0296,0.0312,0.0382,0.0445,0.0478,0.052,0.0573,0.0633,0.0681,0.0725,0.0809,0.0799,0.0804,0.0775,0.0733,0.0732,0.0729,0.0781,0.0782,0.0782,0.0783,0,0.0148,0.0148,0.0173,0.0187,0.0202,0.0193,0.0225,0.0254,0.0291,0.0385,0.0393,0.0476,0.0549,0.0589,0.0635,0.0667,0.0667,0.0658,0.067,0.0678,0.0605,0.0532,0.0527,0,0,0,0,0,0.0133,0.0124,0.0132,0.0139,0.015,0.0155,0.0188,0.0222,0.0297,0.0301,0.0349,0.0395,0.0462,0.0508,0.0521,0.0589,0.0669,0.0602,0.0662,0.0743,0.075,0.0676,0,0,0,0,0,0,0.0119,0.0125,0.0121,0.0094,0.0087,0.0087,0.0103,0.0151,0.0161,0.0246,0.0284,0.036,0.0432,0.0448,0.0508,0.0526,0.0554,0.0662,0.0661,0.0738,0.0745,0.0752,0.0678,0,0,0,0,0]},{"header":{"parameterUnit":"m.s-1","parameterCategory":2,"la1":30.2991,"la2":30.254,"lo1":-89.0895,"lo2":-89.0444,"dy":0.0017,"dx":0.0017,"nx":28,"ny":28,"refTime":"2025-09-11T09:00:00:Z","depth":"4","parameterNumber":3,"parameterNumberName":"V-component_of_CURRENTS"},"data":[0,0,0,0,0,0,0,0,0,0,0,0,0,0,0,0,0,0,0,0,0,0,0,0,0,0,0,0,0,0,0,0,0,0,0,0,0,0,0,0,0,0,0,0,0,0,0,0,0,0,0,0,0,0,0,0,0,0,0.0345,0.0346,0,0.0367,0.0368,0.0368,0.0383,0.0383,0.0383,0.0383,0.0386,0.0386,0.0386,0,0,0,0,0,0,0,0,0,0,0,0,0,0.0311,0.0312,0.0345,0.0346,0.0346,0.0367,0.0368,0.0368,0.0383,0.0383,0.0383,0.0383,0.0386,0.0386,0.0386,0,0,0,0,0,0,0,0,0,0,0,0,0,0.0329,0.0312,0.0345,0.0356,0.0357,0.0367,0.0368,0.0368,0.0383,0.0383,0.0383,0.0384,0.0386,0.0386,0.0386,0.0383,0,0,0.0386,0.0386,0,0,0,0,0,0,0,0,0.0328,0.0331,0.0354,0.0355,0.0356,0.0372,0.0357,0.0372,0.0383,0.0374,0.0383,0.0384,0.0379,0.038,0.0385,0.0384,0.0384,0.0386,0.0386,0.0386,0.0386,0,0,0,0,0,0,0,0.0327,0.033,0.0354,0.0354,0.0356,0.0357,0.036,0.036,0.0375,0.0374,0.0375,0.0377,0.038,0.0385,0.0385,0.0384,0.0386,0.0386,0.0386,0.0386,0.0378,0.0378,0,0,0,0,0,0,0.0324,0.0329,0.0354,0.0355,0.0342,0.0358,0.0361,0.0367,0.0376,0.0377,0.0377,0.0378,0.0384,0.0385,0.0385,0.0398,0.0386,0.0386,0.0386,0.0378,0.0378,0.0378,0,0,0,0,0,0,0.0323,0.0326,0.0353,0.0342,0.0345,0.0358,0.0365,0.0368,0.038,0.0378,0.0379,0.0388,0.0385,0.0385,0.0391,0.0398,0.0386,0.0386,0.0379,0.0378,0.0378,0.0415,0,0,0,0,0,0,0.0322,0.0326,0.0333,0.0342,0.0346,0.0367,0.0365,0.0368,0.0381,0.0382,0.0388,0.0388,0.0385,0.0392,0.0391,0.0398,0.0386,0.0379,0.0378,0.0378,0.0414,0.0416,0.0418,0,0,0,0,0,0.0321,0.0331,0.0333,0.0336,0.0354,0.0367,0.037,0.0379,0.0381,0.039,0.0392,0.0388,0.0389,0.0392,0.0392,0.0398,0.0379,0.0379,0.0378,0.0413,0.0416,0.0418,0,0,0,0,0,0,0.0322,0.0333,0.0336,0.035,0.036,0.037,0.038,0.0384,0.0394,0.0397,0.0392,0.0393,0.0399,0.039,0.0394,0.0391,0.038,0.038,0.0407,0.0409,0.0411,0.0416,0.0386,0,0,0,0,0,0.0324,0.0336,0.0344,0.0357,0.0363,0.0372,0.038,0.0387,0.0394,0.0399,0.0401,0.0398,0.0395,0.0397,0.0394,0.0397,0.0387,0.0397,0.0399,0.0401,0.0402,0.0392,0.0393,0.0376,0.0376,0.0376,0,0,0.0329,0.0337,0.0343,0.0358,0.0368,0.0381,0.0378,0.0394,0.0405,0.0397,0.0413,0.0408,0.0397,0.0402,0.0403,0.0398,0.04,0.04,0.0402,0.0403,0.0392,0.0393,0.0395,0.0376,0.0376,0.0376,0,0,0.0343,0.035,0.0364,0.0373,0.0389,0.0394,0.04,0.0412,0.042,0.0432,0.0425,0.0424,0.0425,0.0418,0.0414,0.0421,0.041,0.0417,0.0433,0.0423,0.0425,0.0426,0.0419,0.0419,0.0418,0.0418,0.0418,0,0.0347,0.0366,0.0371,0.0386,0.0396,0.04,0.0417,0.0424,0.0437,0.0442,0.0442,0.0439,0.0431,0.0432,0.0434,0.0427,0.042,0.043,0.0427,0.0428,0.0429,0.0421,0.0421,0.042,0.0419,0.0419,0.0419,0,0.037,0.0386,0.0396,0.0415,0.0425,0.0442,0.0449,0.0461,0.0468,0.047,0.0477,0.0468,0.0466,0.0459,0.0452,0.0451,0.0444,0.0434,0.0426,0.0433,0.0424,0.0423,0.0422,0.0421,0.0421,0.042,0,0,0.0377,0.0406,0.0411,0.0425,0.0443,0.0455,0.0472,0.0486,0.0499,0.0503,0.0515,0.0506,0.0501,0.0494,0.0482,0.0471,0.0471,0.0458,0.0457,0.0458,0.0453,0.0437,0.0435,0.0463,0.0463,0.0463,0.0446,0,0.0395,0.0427,0.0437,0.0468,0.0484,0.0492,0.0507,0.0518,0.0526,0.0538,0.0525,0.0531,0.0514,0.0517,0.0505,0.0483,0.047,0.0477,0.0438,0.0437,0.0429,0.0434,0.0463,0.0445,0.0445,0.0445,0.0445,0,0.0415,0.0434,0.0467,0.0495,0.0504,0.0523,0.0548,0.0563,0.0573,0.0578,0.058,0.0569,0.0562,0.0543,0.0512,0.052,0.0489,0.0466,0.0464,0.0436,0.042,0.0434,0.0443,0.0443,0.0443,0.0443,0.0443,0,0.0418,0.0455,0.0483,0.0494,0.0524,0.0544,0.0563,0.0578,0.0598,0.0608,0.0619,0.0604,0.0609,0.0569,0.0529,0.0522,0.0491,0.0473,0.0427,0.0425,0.0429,0.0428,0.0441,0.0441,0.0441,0.0441,0.0441,0,0.043,0.0454,0.0492,0.0507,0.0543,0.0561,0.0601,0.0612,0.0638,0.0664,0.0645,0.0658,0.0616,0.0594,0.0544,0.0492,0.0504,0.0431,0.042,0.0444,0.0445,0.0429,0.0428,0.044,0.044,0.044,0.0441,0,0.0428,0.0454,0.0488,0.0529,0.0547,0.0574,0.0631,0.0661,0.0677,0.0712,0.0718,0.0709,0.0685,0.0633,0.0576,0.0518,0.0462,0.0435,0.0476,0.0467,0.0396,0.0397,0.0379,0.0379,0.0378,0.0378,0.0377,0,0.0427,0.0446,0.0501,0.0529,0.0554,0.0602,0.0642,0.0679,0.0711,0.0742,0.0758,0.0747,0.0732,0.0643,0.0584,0.0489,0.0464,0.0423,0.0396,0.04,0.039,0.0392,0.0394,0.0376,0.0376,0.0376,0.0376,0,0.0421,0.0446,0.0476,0.0536,0.0586,0.0642,0.0699,0.0722,0.0768,0.0781,0.0787,0.0742,0.0715,0.0645,0.0578,0.0504,0.0444,0.0417,0.0417,0.039,0.0395,0.0387,0.0389,0.0374,0.0374,0.0374,0.0374,0,0.0416,0.0438,0.0489,0.0541,0.0603,0.0669,0.0699,0.0744,0.0777,0.08,0.0805,0.077,0.0757,0.0653,0.0591,0.0522,0.0487,0.0432,0.0431,0.0432,0.0446,0.046,0.0451,0,0,0,0,0,0.0413,0.0448,0.0493,0.056,0.0621,0.0668,0.0733,0.0762,0.08,0.0802,0.0802,0.0773,0.0683,0.065,0.0578,0.0572,0.0475,0.048,0.041,0.0363,0.0365,0.037,0,0,0,0,0,0,0.0414,0.046,0.049,0.0568,0.0618,0.0699,0.0746,0.0776,0.0773,0.079,0.075,0.0728,0.0651,0.073,0.0571,0.0552,0.0487,0.0445,0.0443,0.0361,0.0363,0.0365,0.0372,0,0,0,0,0]}]]